TimeEDT,TemperatureF,Dew PointF,Humidity,Sea Level PressureIn,VisibilityMPH,Wind Direction,Wind SpeedMPH,Gust SpeedMPH,PrecipitationIn,Events,Conditions,WindDirDegrees,DateUTC
12:53 AM,60.1,59.0,96,30.08,0.2,Calm,Calm,-,N/A,Fog,Fog,0,2012-10-05 04:53:00
1:24 AM,60.8,57.2,88,30.07,0.5,Calm,Calm,-,N/A,Fog,Fog,0,2012-10-05 05:24:00
1:36 AM,59.0,57.2,94,30.07,0.2,Calm,Calm,-,N/A,Fog,Fog,0,2012-10-05 05:36:00
1:53 AM,60.1,57.9,93,30.09,0.2,Calm,Calm,-,N/A,Fog,Fog,0,2012-10-05 05:53:00
2:06 AM,59.0,57.2,94,30.07,0.5,Calm,Calm,-,N/A,Fog,Fog,0,2012-10-05 06:06:00
2:17 AM,59.0,57.2,94,30.07,0.2,Calm,Calm,-,N/A,Fog,Fog,0,2012-10-05 06:17:00
2:53 AM,59.0,57.9,96,30.08,0.2,Calm,Calm,-,N/A,Fog,Fog,0,2012-10-05 06:53:00
3:53 AM,59.0,57.9,96,30.07,0.2,Calm,Calm,-,N/A,Fog,Fog,0,2012-10-05 07:53:00
4:42 AM,57.2,55.4,94,30.06,0.2,Calm,Calm,-,N/A,Fog,Fog,0,2012-10-05 08:42:00
4:50 AM,57.2,55.4,94,30.06,0.5,Calm,Calm,-,N/A,Fog,Fog,0,2012-10-05 08:50:00
4:53 AM,57.0,55.9,96,30.08,0.5,Calm,Calm,-,N/A,Fog,Fog,0,2012-10-05 08:53:00
5:23 AM,57.2,55.4,94,30.07,0.5,Calm,Calm,-,N/A,Fog,Fog,0,2012-10-05 09:23:00
5:53 AM,55.9,55.0,97,30.09,0.8,Calm,Calm,-,N/A,,Clear,0,2012-10-05 09:53:00
6:05 AM,57.2,55.4,94,30.08,2.0,Calm,Calm,-,N/A,,Clear,0,2012-10-05 10:05:00
6:14 AM,57.2,55.4,94,30.08,0.8,Calm,Calm,-,N/A,,Clear,0,2012-10-05 10:14:00
6:30 AM,57.2,55.4,94,30.08,1.5,Calm,Calm,-,N/A,,Clear,0,2012-10-05 10:30:00
6:39 AM,57.2,55.4,94,30.08,2.5,Calm,Calm,-,N/A,,Clear,0,2012-10-05 10:39:00
6:46 AM,55.4,53.6,94,30.08,0.8,Calm,Calm,-,N/A,,Mist,0,2012-10-05 10:46:00
6:53 AM,55.9,55.0,97,30.09,0.5,Calm,Calm,-,N/A,Fog,Fog,0,2012-10-05 10:53:00
7:01 AM,57.2,55.4,94,30.07,0.8,Calm,Calm,-,N/A,,Clear,0,2012-10-05 11:01:00
7:17 AM,55.4,55.4,100,30.08,1.0,Calm,Calm,-,N/A,,Clear,0,2012-10-05 11:17:00
7:24 AM,55.4,55.4,100,30.08,0.2,Calm,Calm,-,N/A,Fog,Fog,0,2012-10-05 11:24:00
7:39 AM,57.2,55.4,94,30.08,0.8,Calm,Calm,-,N/A,,Clear,0,2012-10-05 11:39:00
7:46 AM,57.2,55.4,94,30.08,1.5,Calm,Calm,-,N/A,,Clear,0,2012-10-05 11:46:00
7:53 AM,57.0,55.9,96,30.09,1.2,Calm,Calm,-,N/A,,Clear,0,2012-10-05 11:53:00
8:04 AM,57.2,55.4,94,30.08,7.0,Calm,Calm,-,N/A,,Clear,0,2012-10-05 12:04:00
8:53 AM,61.0,59.0,93,30.10,7.0,Calm,Calm,-,N/A,,Clear,0,2012-10-05 12:53:00
9:53 AM,66.0,57.9,75,30.10,10.0,Calm,Calm,-,N/A,,Clear,0,2012-10-05 13:53:00
10:53 AM,70.0,59.0,68,30.09,10.0,Calm,Calm,-,N/A,,Clear,0,2012-10-05 14:53:00
11:53 AM,73.9,55.9,53,30.07,10.0,Calm,Calm,-,N/A,,Clear,0,2012-10-05 15:53:00
1:53 PM,78.1,55.0,45,30.01,10.0,Calm,Calm,-,N/A,,Clear,0,2012-10-05 17:53:00
2:53 PM,80.1,54.0,40,29.99,10.0,WNW,5.8,-,N/A,,Clear,300,2012-10-05 18:53:00
3:53 PM,80.1,52.0,38,29.97,10.0,Variable,3.5,-,N/A,,Clear,0,2012-10-05 19:53:00
4:53 PM,78.1,57.0,48,29.98,10.0,Variable,3.5,-,N/A,,Clear,0,2012-10-05 20:53:00
5:53 PM,75.9,57.9,54,29.98,10.0,Calm,Calm,-,N/A,,Clear,0,2012-10-05 21:53:00
6:53 PM,71.1,59.0,66,29.98,10.0,Calm,Calm,-,N/A,,Clear,0,2012-10-05 22:53:00
7:53 PM,68.0,59.0,73,29.98,10.0,Calm,Calm,-,N/A,,Clear,0,2012-10-05 23:53:00
8:53 PM,66.9,59.0,76,29.98,10.0,Calm,Calm,-,N/A,,Clear,0,2012-10-06 00:53:00
9:53 PM,64.9,59.0,81,29.97,9.0,Calm,Calm,-,N/A,,Clear,0,2012-10-06 01:53:00
10:53 PM,64.0,59.0,84,29.96,8.0,Calm,Calm,-,N/A,,Clear,0,2012-10-06 02:53:00
11:53 PM,61.0,57.0,87,29.95,7.0,Calm,Calm,-,N/A,,Clear,0,2012-10-06 03:53:00